AirNav   Pilot Hours Calculator
 
 1432 users online  

31NH Johnson's Heliport
Northwood, New Hampshire, USA

GOING TO NORTHWOOD?


FAA INFORMATION EFFECTIVE 31 DECEMBER 2020

Location

FAA Identifier: 31NH
Lat/Long: 43-13-23.8200N 071-14-56.2500W
43-13.397000N 071-14.937500W
43.2232833,-71.2489583
(estimated)
Elevation: 575 ft. / 175 m (estimated)
From city: 5 miles NE of NORTHWOOD, NH
Time zone: UTC -5 (UTC -4 during Daylight Saving Time)
Zip code: 03261

Heliport Operations

Heliport use: Private use. Permission required prior to landing
Activation date: 02/2017
Control tower: no
ARTCC: BOSTON CENTER
FSS: BANGOR FLIGHT SERVICE STATION
Attendance: 
Wind indicator: yes
Segmented circle: no

Heliport Communications

WX ASOS at CON (11 nm W): 132.325 (603-224-6558)
WX ASOS at DAW (14 nm E): 135.275 (603-332-7814)
WX ASOS at MHT (19 nm SW): 119.55 (603-621-1766)

Nearby radio navigation aids

VOR radial/distance  VOR name  Freq  Var
CONr104/14.3CONCORD VOR/DME112.9015W
PSMr311/20.1PEASE VOR/DME116.5016W
MHTr029/21.9MANCHESTER VOR/DME114.4015W
LWMr002/29.8LAWRENCE VOR/DME112.5015W
ENEr263/30.3KENNEBUNK VOR/DME117.1017W

 
NDB name  Hdg/Dist  Freq  Var  ID
EPSOM071/10.921616WCO -.-. ---
ROLLINS287/18.426016WESG . ... --.

Heliport Services

Runway Information

Helipad H1

Dimensions: 150 x 120 ft. / 46 x 37 m
Surface: turf
Latitude: 43-13.397000N
Longitude: 071-14.937500W
Elevation: 575.0 ft.
Traffic pattern: leftleft

Heliport Ownership and Management from official FAA records

Ownership: Privately-owned
Owner: JEFF FENERTY
PO BOX 255
NORTHWOOD, NH 03261
Phone 603-942-7300
Manager: MATT MATTICE
PO BOX 255
NORTHWOOD, NH 03261
Phone 603-942-7300

Additional Remarks

FOR CD CTC BOSTON APCH AT 603-594-5551.

Instrument Procedures

There are no published instrument procedures at 31NH.

Some nearby airports with instrument procedures:

KCON - Concord Municipal Airport (11 nm W)
KDAW - Skyhaven Airport (14 nm E)
KMHT - Manchester Airport (19 nm SW)
KPSM - Portsmouth International Airport at Pease (21 nm SE)
3B4 - Littlebrook Air Park (21 nm E)
 
Loc | Ops | Rwys | IFR | FBO | Links
Com | Nav | Svcs | Stats | Notes
Aerial photo
No photo
 
Airport distance calculator
Flying to Johnson's Heliport? Find the distance to fly.

From to 31NH

Sunrise and sunset
Times for 15-Jan-2021
 Local
(UTC-5)
 Zulu
(UTC)
Morning civil twilight06:4411:44
Sunrise07:1512:15
Sunset16:3421:34
Evening civil twilight17:0522:05

Current date and time
Zulu (UTC)  15-Jan-2021 19:10:28
Local (UTC-5)  15-Jan-2021 14:10:28
 
METAR
KCON 
11nm W 
151851Z AUTO VRB04KT 10SM CLR 06/M06 A3005 RMK AO2 SLP178 T00561056
KDAW 
15nm E 
151851Z AUTO 12008KT 10SM CLR 05/M05 A3006 RMK AO2 SLP178 T00501050
KMHT 
19nm SW 
151853Z 13009KT 10SM FEW030 BKN250 06/M04 A3004 RMK AO2 SLP189 T00611044
KPSM 
21nm SE 
151856Z 08009KT 10SM FEW045 BKN250 05/M02 A3006 RMK AO2A SLP183 T00451022 RVRNO $
KLCI 
22nm N 
151856Z AUTO 07006KT 10SM BKN042 04/M04 A3004 RMK AO2 SLP178 T00391039
TAF
KCON 
11nm W 
151742Z 1518/1618 VRB04KT P6SM BKN200 FM160200 07003KT P6SM BKN025 FM160800 06007KT 2SM -SN BR OVC012 FM161200 08009G16KT 2SM RA BR OVC003
KMHT 
19nm SW 
151742Z 1518/1618 11005KT P6SM SCT045 BKN200 FM160200 07007KT P6SM OVC025 FM160800 06010KT 3SM -SNRA BR OVC012 FM161200 06014G22KT 3SM RA BR OVC005
NOTAMs
Click for the latest NOTAMs
NOTAMs are issued by the DoD/FAA and will open in a separate window not controlled by AirNav.

 

 
 

Would you like to see your business listed on this page?

 If your business provides an interesting product or service to pilots, flight crews, aircraft, or users of the Johnson's Heliport, you should consider listing it here.  To start the listing process, click on the button below
 
Add a business
 

Other Pages about Johnson's Heliport

Update a link
 
Copyright © AirNav, LLC. All rights reserved. Privacy Policy  Contact